RH
40 40 38 38 39 40 41 42 42 42 42 44 45 44 43 42 42 42 43 44 44 44 44 44 44 43 42 41 39 34 27 21 17 13 9 6 5 4 4 4 3 3 3 3 3 3 4 4 5 6 7 8 8 8 9 10 11 11 10 10 10 10 12 13 17 18 14 12 15 16 17 21 26 29 29 33 37 39 40 37 35 36 36 36 35
40 39 39 41 44 44 45 45 45 45 45 45 44 44 43 44 44 45 45 45 45 44 44 44 43 43 41 38 34 27 21 16 12 8 5 4 4 4 4 3 3 4 4 4 4 4 4 4 4 4 5 6 6 7 8 9 10 11 11 11 12 11 11 15 19 19 15 15 16 12 11 17 24 28 32 37 40 42 43 44 44 44 43 44 43
41 41 44 46 47 47 47 47 46 46 46 46 46 46 46 47 47 46 46 46 46 45 45 44 43 41 37 31 25 19 15 11 8 5 5 4 4 4 4 4 4 4 4 5 4 5 5 5 5 5 5 5 5 6 6 7 8 9 10 11 11 11 11 15 20 21 18 19 19 13 11 13 15 23 34 39 42 44 44 45 47 52 54 54 52
45 47 48 49 48 48 49 49 48 49 49 49 49 49 49 49 49 48 48 47 47 47 45 43 40 36 31 25 18 13 9 7 6 5 5 5 5 6 6 6 6 6 6 6 6 6 6 6 6 6 7 7 7 7 7 8 8 9 10 10 9 9 9 12 17 21 22 25 24 17 17 16 11 17 28 31 36 42 43 47 48 52 59 63 61
51 51 51 51 51 51 51 52 52 52 52 53 53 52 52 52 51 50 50 48 47 44 41 37 32 28 23 17 12 9 7 6 6 6 7 7 7 7 8 8 8 8 8 8 8 8 8 8 9 8 8 9 9 9 10 10 11 11 11 11 11 10 10 10 12 16 21 27 28 22 22 21 16 21 26 24 30 38 41 46 51 53 59 66 68
54 53 53 53 54 54 55 55 55 55 56 56 56 56 54 53 51 50 48 45 41 36 32 27 21 16 13 10 8 7 6 6 6 7 8 9 9 9 10 10 11 11 10 10 10 10 11 11 11 11 11 11 12 12 12 13 13 14 13 13 13 13 12 11 11 13 15 19 21 23 26 26 24 27 29 26 28 35 42 45 50 57 61 67 74
55 56 56 56 57 57 57 57 57 59 60 61 59 57 54 51 48 45 42 36 30 24 19 15 11 9 9 8 8 8 7 6 6 7 8 10 11 11 12 13 14 14 13 13 14 14 15 15 15 14 13 14 15 15 16 17 17 17 17 16 15 15 15 14 13 13 13 13 14 17 21 25 31 33 33 34 30 30 41 52 56 61 66 69 74
57 58 59 59 59 59 59 61 63 66 66 64 61 57 52 48 44 39 33 24 18 14 11 10 10 10 11 10 10 9 8 7 7 7 9 10 11 12 14 15 17 18 18 18 19 19 20 21 21 20 18 18 19 19 20 21 22 22 23 22 21 21 19 18 18 17 16 15 15 15 15 17 24 29 32 38 36 26 28 47 62 69 73 74 74
60 61 61 60 61 62 65 69 72 72 69 64 58 52 46 40 35 28 20 13 10 10 11 13 14 14 14 13 11 10 9 8 8 8 10 11 12 13 15 16 18 19 20 20 20 20 21 21 22 22 22 22 22 23 25 26 27 28 28 29 29 28 28 27 25 24 23 21 19 18 16 14 15 19 25 35 44 39 28 34 58 75 80 79 78
63 62 62 64 67 71 75 78 77 72 66 59 51 43 35 27 21 15 11 9 10 12 14 16 18 17 15 13 12 11 11 10 10 10 12 14 13 14 15 16 16 17 17 17 16 16 16 15 16 17 18 20 21 22 24 25 26 26 27 28 29 29 31 32 32 32 31 30 28 24 21 19 16 16 19 28 43 48 36 29 47 70 79 81 86
63 66 69 73 78 80 81 79 72 65 58 51 41 30 21 16 13 12 12 12 12 14 16 17 18 17 16 15 13 13 13 13 13 14 14 16 15 15 15 14 14 14 13 13 12 12 11 11 11 11 12 13 14 15 15 16 16 16 16 16 18 20 23 28 30 32 36 36 35 33 29 26 23 20 17 22 32 39 40 34 39 61 73 75 85
69 74 78 81 83 82 78 72 65 57 48 37 25 17 13 13 13 13 14 14 13 15 17 19 19 18 17 16 15 14 15 16 17 17 17 17 16 14 14 13 12 12 11 10 9 9 8 8 8 8 8 8 9 9 8 8 8 8 8 8 9 10 13 20 23 26 36 41 40 40 37 32 29 26 21 22 22 27 42 41 34 54 70 66 76
78 81 83 84 82 76 71 65 56 45 31 21 15 13 14 14 14 14 15 16 17 19 22 22 21 19 17 16 16 16 17 19 19 18 17 16 14 13 11 10 10 9 9 8 7 7 7 7 7 6 6 6 6 6 6 6 6 6 6 6 7 7 8 13 16 20 31 41 45 46 44 39 35 31 27 25 23 25 38 39 35 57 73 66 73
86 86 85 81 76 70 63 53 40 26 17 14 15 17 16 16 17 18 19 22 24 25 25 24 21 19 17 16 16 16 19 21 19 16 14 12 10 9 8 8 7 7 7 6 6 6 6 6 6 6 6 7 6 6 6 6 6 6 6 6 6 7 8 11 15 21 29 40 50 52 49 45 42 39 34 29 29 30 32 36 45 66 78 74 77
88 85 81 74 67 59 48 35 25 19 18 19 19 19 19 19 21 22 24 25 26 26 24 23 21 20 18 16 16 18 21 21 17 12 9 8 7 6 6 6 5 6 6 6 6 6 7 7 6 7 7 7 7 6 7 6 6 7 6 6 6 7 10 14 20 27 32 42 56 59 56 52 48 46 45 38 37 38 38 44 58 73 81 81 83
85 80 72 64 56 46 34 26 24 22 21 20 20 21 21 23 24 25 27 27 27 25 23 22 21 20 19 18 18 20 22 20 15 9 6 6 6 5 6 5 5 6 6 6 7 6 7 7 7 7 6 7 7 6 6 6 6 7 6 6 6 7 11 14 23 34 38 47 61 66 63 59 53 51 53 50 46 47 50 59 71 81 89 89 86
80 72 64 57 48 37 28 24 24 22 20 21 23 25 26 28 29 29 30 29 27 24 22 22 22 21 21 21 21 21 21 18 12 8 6 6 6 5 6 6 6 6 7 7 7 7 7 7 7 7 6 6 6 6 6 6 6 6 5 6 6 7 10 9 16 30 41 55 69 73 71 66 59 56 58 59 59 60 66 76 83 91 99 97 90
74 67 62 54 40 29 24 22 22 22 23 25 26 29 32 34 35 31 28 25 23 22 22 23 23 23 23 23 23 20 16 13 9 7 6 5 6 6 6 7 7 7 7 7 7 7 7 7 7 6 6 6 6 6 6 5 6 5 5 7 6 7 10 8 9 18 33 56 74 78 79 75 68 64 63 65 72 78 83 91 96 98 102 101 95
69 64 58 45 29 23 23 22 23 23 25 26 27 30 32 33 31 26 23 23 22 23 23 24 24 24 24 22 19 15 11 8 6 6 6 6 6 6 6 7 7 7 7 7 7 7 7 7 6 6 6 6 5 5 5 5 6 6 8 10 8 10 14 12 10 13 28 54 75 81 84 83 80 76 71 72 84 94 96 99 101 100 101 100 99
64 57 46 32 23 23 23 23 24 24 25 26 27 28 28 26 24 22 23 23 24 24 23 23 22 20 18 15 12 9 8 6 6 6 6 6 6 7 7 7 7 7 7 7 7 7 7 6 6 5 5 5 5 5 4 5 6 6 9 11 9 14 18 14 12 18 33 59 79 84 85 88 90 85 78 81 94 102 101 100 101 100 101 101 100
57 45 32 24 23 24 24 25 24 24 26 27 26 25 23 23 23 23 24 24 24 23 19 16 14 11 10 8 7 6 6 6 6 6 7 7 7 7 7 7 8 8 7 7 7 6 6 5 5 5 5 4 5 5 4 4 6 6 8 9 9 14 17 15 18 27 46 72 86 88 88 91 94 91 87 91 100 102 101 100 101 100 101 100 101
46 32 25 24 25 26 25 25 24 24 25 25 24 24 24 25 25 25 24 22 20 16 13 10 8 7 6 6 6 6 6 7 7 7 7 8 8 8 8 8 8 7 7 6 6 6 5 5 5 5 4 5 4 4 4 4 5 6 7 8 10 13 15 17 26 40 63 86 93 91 92 94 97 97 95 98 101 101 101 100 100 101 100 101 101
35 27 26 27 28 27 25 25 25 26 25 24 25 25 26 26 25 22 19 16 12 10 8 7 6 6 6 6 7 7 7 8 8 8 8 8 8 8 8 8 7 7 7 6 6 6 5 5 5 5 4 5 4 4 4 4 4 5 6 8 11 16 21 26 38 58 81 95 96 94 95 97 101 101 98 99 100 100 100 100 100 101 100 100 102
30 28 29 29 28 26 26 26 26 26 25 26 26 26 24 22 18 15 12 9 8 7 6 7 7 8 8 8 8 9 9 9 9 9 9 9 9 8 8 8 7 7 7 6 6 5 5 5 5 5 5 4 5 4 4 4 5 5 6 9 14 22 31 41 57 78 93 99 97 96 97 101 104 101 98 99 100 100 100 100 100 100 100 100 101
31 32 31 29 27 27 28 28 27 27 27 26 24 21 17 13 10 9 8 7 8 8 8 9 9 10 10 10 11 11 11 11 11 11 10 10 10 8 8 8 7 7 7 6 6 5 5 5 5 5 5 4 5 4 4 5 4 5 8 12 19 30 46 62 77 90 97 99 99 98 99 103 104 100 98 100 100 100 101 102 100 100 101 100 101
33 32 29 27 28 29 28 28 28 27 24 20 17 13 10 8 8 8 8 8 9 10 11 11 11 12 12 12 13 13 13 13 12 12 11 11 10 9 8 7 7 7 6 6 6 5 5 5 5 5 5 5 5 4 4 5 4 5 8 12 23 42 64 81 91 95 98 100 100 100 100 103 102 99 100 100 100 102 103 102 101 100 100 100 100
32 30 29 29 29 29 29 27 25 21 16 13 10 9 8 8 8 9 10 11 11 12 12 12 13 13 13 13 13 12 12 12 11 11 10 9 9 8 8 7 7 7 6 6 6 6 6 5 5 5 5 5 5 5 5 5 4 6 9 18 36 59 79 92 97 98 100 101 101 101 101 101 101 100 100 101 101 103 102 101 100 100 100 100 101
31 30 30 30 30 28 26 21 16 13 11 9 8 9 9 10 11 11 12 12 12 12 12 12 12 12 12 12 11 11 10 10 9 9 9 8 8 8 7 7 7 6 6 6 6 6 6 6 5 5 5 5 5 5 5 5 5 7 14 32 57 77 88 96 99 100 102 102 101 101 101 100 100 100 101 102 102 102 101 100 100 100 100 100 101
31 31 30 29 27 22 17 12 10 9 9 9 10 10 11 12 12 12 12 12 12 12 11 11 11 11 11 10 10 10 9 9 9 8 8 8 8 7 7 7 7 7 6 6 6 6 6 6 6 5 5 5 5 5 5 6 8 12 24 51 78 93 98 100 101 102 103 102 101 101 101 100 99 101 101 102 102 101 101 100 100 100 100 100 100
32 31 28 24 18 13 10 9 9 9 10 11 12 12 12 12 12 12 12 11 11 11 11 11 10 10 10 10 9 9 9 9 9 8 8 8 7 8 8 7 7 7 7 7 6 6 6 6 6 5 5 5 5 6 6 9 18 32 52 76 94 101 103 103 103 102 101 101 101 101 100 99 100 101 102 101 100 100 101 100 100 100 100 100 101
31 27 21 14 10 8 8 9 9 10 12 12 12 12 12 11 12 11 11 11 11 11 10 10 10 10 10 10 10 10 9 9 9 9 8 8 8 8 8 7 8 7 7 7 6 6 6 6 6 6 6 7 7 8 11 20 39 65 87 98 100 100 102 103 103 101 101 101 102 101 99 99 102 103 102 102 101 101 102 102 101 100 100 100 101
26 19 12 9 8 8 8 10 11 11 12 11 11 12 11 11 12 11 11 11 10 10 10 11 11 10 10 10 10 10 10 9 9 9 9 9 8 8 8 8 8 7 7 7 7 7 7 7 8 8 8 10 11 14 25 45 70 91 102 103 101 99 99 100 100 101 103 103 102 101 99 100 103 103 103 104 102 101 102 102 100 100 101 101 100
17 11 9 8 8 9 10 11 11 11 11 11 11 11 11 11 11 11 11 11 11 11 11 11 11 11 11 11 10 10 10 10 10 9 9 9 9 9 9 9 8 8 8 8 7 8 9 10 12 13 15 18 20 27 48 75 94 102 102 101 101 100 98 98 100 102 105 103 100 101 101 101 103 102 102 103 101 100 101 101 100 100 101 101 99
10 8 9 9 9 10 11 10 11 11 11 11 11 12 11 11 11 11 11 12 12 12 12 12 12 12 11 11 11 11 11 11 10 10 10 10 10 10 10 9 9 8 8 8 9 10 11 14 18 22 27 31 37 51 75 95 102 102 101 101 100 100 99 97 98 103 104 101 100 101 101 101 102 101 101 101 100 100 101 100 100 101 101 100 98
8 8 9 9 10 11 10 10 11 11 11 12 12 12 11 11 12 12 12 12 13 12 12 12 12 12 12 12 12 12 12 11 11 11 11 11 11 11 10 10 9 9 10 11 12 14 16 20 28 38 43 48 59 79 96 102 101 100 101 100 100 101 100 94 94 101 102 98 99 101 100 100 101 101 101 102 101 100 100 100 100 100 101 100 98
8 9 9 10 11 10 10 11 11 11 12 12 12 12 12 12 13 13 13 13 13 13 13 13 13 13 13 13 13 13 13 13 13 12 13 13 12 11 11 11 11 11 14 17 20 25 29 35 47 60 66 68 80 97 103 101 100 101 100 100 100 100 100 94 90 96 99 96 97 99 100 101 102 101 101 102 101 99 99 100 101 101 101 101 100
8 9 10 10 10 10 11 11 11 12 12 12 12 13 13 13 13 14 14 14 14 14 14 14 14 14 14 15 15 15 15 15 15 15 15 14 13 13 13 14 15 17 20 26 31 36 44 55 68 79 85 87 93 101 103 100 100 101 100 100 100 100 99 94 89 91 94 95 97 100 102 102 102 101 101 101 101 99 97 98 101 102 102 101 100
9 10 10 10 10 11 11 12 12 12 12 12 13 13 13 14 14 14 14 14 14 15 15 15 15 15 16 17 17 18 18 18 18 18 17 16 16 16 18 22 27 29 31 38 45 50 60 75 86 93 97 99 100 102 101 100 100 101 100 100 101 99 98 94 89 88 89 92 98 102 102 102 101 101 100 101 101 99 96 97 101 103 102 100 100
10 10 10 10 11 11 11 12 12 12 13 13 14 14 14 15 14 15 15 15 15 15 16 16 16 17 18 20 21 22 23 23 23 21 21 21 21 23 29 37 43 47 50 58 66 72 79 89 96 100 102 102 101 101 101 100 100 100 100 100 100 99 96 92 89 87 87 92 100 102 102 102 101 101 101 101 101 99 96 97 102 103 101 100 101
10 10 10 11 12 11 12 12 12 13 14 14 14 15 15 15 15 16 16 16 16 17 16 17 18 19 21 24 26 28 28 28 28 25 24 28 33 38 45 52 59 64 69 75 82 88 93 96 99 101 101 101 100 100 100 100 100 100 100 100 100 100 96 91 89 89 91 96 101 102 101 101 100 101 101 100 100 100 98 99 103 102 99 100 102
10 11 11 12 12 12 12 13 14 15 14 15 15 15 15 16 16 16 17 17 17 18 18 19 20 22 25 28 31 33 33 32 32 29 30 39 52 59 63 69 75 78 80 84 92 98 100 100 101 101 100 100 100 100 100 100 100 100 100 100 100 100 97 95 95 96 98 101 102 101 100 100 100 100 101 100 100 100 100 101 103 101 99 101 103
11 12 12 12 12 12 13 14 15 15 15 15 16 15 16 17 17 17 18 18 18 19 20 21 23 25 29 31 33 36 37 36 35 33 36 50 66 75 80 84 87 86 87 94 100 102 101 100 100 100 100 100 100 100 100 100 100 100 100 100 100 100 100 100 101 101 101 101 102 101 100 101 101 99 98 99 100 101 101 101 102 102 101 101 102
12 12 12 13 13 14 14 15 15 16 16 16 16 16 17 17 17 18 18 19 20 21 23 24 27 29 32 34 36 39 40 39 38 38 46 63 78 84 88 92 91 91 96 101 102 100 100 100 100 100 100 100 100 100 100 100 100 100 100 100 100 100 100 101 101 101 101 100 100 100 100 101 101 98 97 99 101 101 100 99 101 102 100 100 101
12 13 13 14 15 15 15 16 16 16 17 17 17 17 17 18 19 19 20 21 22 23 26 28 31 34 36 37 39 41 42 42 42 44 56 75 89 91 90 91 94 98 102 102 100 100 100 100 100 100 100 100 100 100 100 100 100 100 100 100 100 100 100 100 100 100 101 101 100 100 100 101 101 100 99 101 102 100 98 98 100 101 100 100 101
13 14 14 14 15 16 16 16 17 17 18 18 18 18 18 19 20 21 22 23 23 26 29 32 35 38 39 40 41 43 44 45 46 52 67 85 96 94 89 90 99 104 103 101 100 100 100 100 100 100 100 100 100 100 100 100 100 100 100 100 100 100 100 100 100 100 101 101 100 100 100 100 100 100 101 101 101 100 100 100 101 100 100 100 100
14 15 15 16 16 16 16 16 17 17 18 18 18 19 20 21 22 23 24 25 27 30 33 36 40 43 43 44 44 44 46 46 47 59 79 95 101 97 88 90 101 105 103 103 101 98 99 100 100 100 100 100 100 100 100 100 100 100 100 100 100 100 100 100 100 101 101 100 100 100 100 100 100 100 100 101 101 100 101 102 101 100 100 100 100
15 16 16 16 16 16 16 17 17 17 18 19 20 22 23 24 26 26 26 28 32 35 37 39 43 45 46 48 49 48 48 46 47 61 82 95 102 101 89 87 99 102 97 97 96 95 99 101 99 100 101 99 100 101 100 100 101 100 100 101 100 100 100 100 100 100 100 100 100 100 100 100 100 100 100 100 101 101 101 101 100 100 100 100 100
16 16 16 16 16 17 17 17 17 18 19 21 22 24 25 27 28 29 30 32 35 39 42 44 47 49 50 52 54 53 51 48 48 63 84 96 102 102 89 85 97 102 95 91 93 96 100 101 99 100 101 99 100 101 100 100 101 100 100 100 100 100 100 100 100 100 100 100 100 100 100 100 100 100 100 100 100 101 101 101 100 100 100 99 99
17 17 17 17 17 17 17 18 19 20 22 24 25 27 28 29 31 33 35 36 38 41 46 48 51 54 54 54 57 57 54 51 50 59 78 95 105 106 93 84 93 102 99 95 97 100 100 100 100 101 100 100 100 100 100 100 100 100 100 100 100 101 100 100 100 100 100 100 100 100 100 100 100 100 100 100 100 102 102 101 100 100 100 100 99
17 17 17 17 18 18 18 19 21 23 25 27 28 29 30 32 34 37 40 42 42 44 48 51 54 57 58 57 60 59 57 56 54 56 66 80 93 104 104 94 93 100 102 99 99 101 100 100 100 100 100 100 100 100 100 101 100 100 100 100 100 100 100 100 100 100 100 100 100 100 100 100 100 100 100 100 100 101 101 101 100 100 100 100 100
17 17 17 18 18 19 19 21 24 26 28 30 31 32 33 34 37 41 44 48 49 50 52 55 57 62 63 63 64 63 60 58 58 61 68 74 78 89 102 104 100 99 100 100 100 100 100 100 100 100 100 100 100 100 100 100 100 101 100 100 100 100 100 100 100 100 100 100 100 100 100 100 100 100 100 100 100 100 100 100 100 100 100 100 100
Wind_Speed
16 15 15 15 15 15 14 15 16 17 18 18 18 20 23 26 29 30 33 35 36 38 40 43 46 48 50 52 53 54 55 54 54 55 55 55 54 53 52 51 50 48 47 47 47 47 46 46 46 46 46 47 48 48 48 48 48 48 49 50 51 51 51 51 51 52 54 54 54 53 53 52 50 50 50 49 49 49 49 49 48 47 46 46 47
16 16 16 15 15 15 15 16 17 18 19 20 21 24 27 30 32 34 36 38 41 43 46 48 50 52 53 55 56 57 57 56 56 55 55 54 52 50 49 48 47 46 45 45 45 45 45 44 44 44 44 45 45 46 46 46 47 47 49 49 49 50 50 49 48 50 53 54 54 56 55 53 51 51 51 50 49 49 50 50 49 48 47 47 47
17 16 16 15 15 15 16 16 18 19 21 22 25 27 30 32 35 37 40 42 45 47 49 51 52 54 55 57 58 58 57 57 57 55 53 52 50 48 47 46 46 45 45 45 44 44 43 43 42 42 42 43 43 43 43 44 44 45 46 48 48 49 49 48 48 49 51 52 54 56 56 55 53 51 49 49 49 50 50 50 50 49 48 47 47
17 16 15 15 14 15 16 17 18 20 22 25 28 30 33 36 39 41 44 46 48 50 52 54 56 57 59 60 59 59 57 55 54 53 51 49 48 47 46 46 45 45 44 44 44 43 43 43 42 42 42 42 42 43 42 42 42 42 43 45 47 48 48 47 47 48 49 50 52 55 56 56 55 52 50 50 50 50 51 51 51 51 49 48 47
17 16 15 15 14 15 16 18 20 22 25 28 31 34 37 40 43 46 48 50 51 53 55 58 60 61 62 62 62 60 57 52 49 47 47 46 45 44 44 44 44 44 44 43 43 43 43 42 42 42 41 41 41 41 41 41 41 41 42 43 44 46 46 46 46 47 47 48 51 54 54 56 56 54 53 51 50 51 51 51 51 52 51 49 48
17 17 16 15 15 15 17 20 22 26 29 32 36 39 42 44 47 48 50 52 53 55 58 60 62 63 63 63 62 60 56 52 47 45 44 44 43 43 43 42 43 43 43 43 43 42 42 42 42 42 41 40 40 40 40 40 40 40 41 42 43 43 45 46 45 44 45 47 49 51 52 54 55 54 55 54 52 51 51 52 52 52 51 50 48
18 16 15 15 15 17 20 23 26 29 33 36 40 42 45 47 48 50 52 53 55 57 59 60 62 62 61 60 58 56 55 52 48 45 43 42 42 42 42 41 41 42 43 43 42 42 42 42 43 43 42 41 40 40 40 39 39 39 39 40 41 42 43 45 44 44 45 46 47 49 50 51 53 54 55 55 55 53 50 51 52 52 52 51 49
17 15 15 16 18 20 23 26 30 33 37 41 44 46 47 49 50 52 54 56 57 58 58 58 58 57 56 55 55 53 53 52 50 47 44 42 42 41 40 40 40 41 42 42 42 41 41 41 42 43 43 42 41 40 40 39 39 39 39 40 40 41 42 44 44 44 45 45 45 47 48 49 51 53 54 54 57 58 54 50 50 51 52 51 50
15 15 16 18 21 24 27 31 34 38 42 45 47 48 50 51 53 55 57 57 57 56 55 54 53 53 53 53 54 53 53 52 52 50 47 44 43 42 41 40 39 39 40 41 41 40 39 39 39 40 41 41 41 40 40 39 39 39 39 39 40 41 42 43 44 44 46 46 46 48 48 48 50 51 52 53 55 57 57 54 50 49 51 52 51
14 15 18 22 25 29 32 35 39 42 45 47 49 51 52 53 55 56 56 55 54 53 52 51 50 51 53 54 55 54 53 52 52 51 49 47 45 44 43 42 41 39 39 39 39 39 39 39 39 39 39 39 39 39 38 38 39 39 39 39 40 41 42 43 44 44 46 47 47 49 49 49 49 49 50 51 53 55 57 57 54 51 51 51 52
15 18 22 26 29 32 35 39 43 46 48 50 51 53 53 54 54 54 52 52 51 51 50 49 49 51 53 54 55 54 53 52 51 51 49 48 47 46 45 44 43 41 40 39 39 40 40 40 40 40 39 39 39 38 39 39 40 40 40 40 41 41 42 43 43 44 45 47 47 49 50 50 50 50 49 50 52 54 56 57 57 55 54 52 52
19 22 26 29 32 35 38 42 46 49 50 52 53 54 53 53 53 53 52 52 51 51 50 49 50 51 52 53 53 53 52 51 50 50 49 48 48 47 46 45 44 42 41 41 40 40 40 41 41 41 41 41 41 40 40 41 42 43 43 43 43 44 44 44 45 44 45 46 47 48 50 51 52 52 50 50 51 52 55 57 57 57 57 55 54
23 26 29 32 35 39 43 46 49 51 53 53 53 53 53 53 53 54 53 52 51 51 50 51 52 53 53 52 52 51 50 49 49 49 48 48 47 47 46 45 44 43 43 42 41 40 41 41 42 43 43 43 43 43 43 43 45 46 46 46 46 47 47 47 47 46 46 47 47 48 49 51 52 52 51 51 51 52 54 56 56 58 59 57 56
27 30 32 36 41 44 47 49 51 52 53 53 53 53 54 54 55 55 54 53 53 53 53 54 55 55 54 53 51 50 49 49 49 48 48 48 47 46 45 45 44 44 43 43 43 43 43 43 44 45 45 46 46 47 46 46 47 48 49 49 49 49 49 50 49 48 48 48 47 47 48 50 51 52 52 52 52 52 53 54 55 58 60 59 58
30 34 37 41 45 47 49 51 51 52 52 52 53 54 55 55 55 55 55 54 54 55 56 56 56 55 53 51 50 48 47 47 47 47 47 47 46 45 44 44 44 44 44 44 45 46 47 47 48 48 48 48 49 49 49 49 50 51 51 51 51 50 50 51 51 50 49 48 48 47 48 49 50 51 52 53 52 52 53 53 54 57 60 61 60
34 38 42 45 47 48 49 50 50 51 52 52 53 54 55 55 54 54 55 56 57 57 57 56 55 54 51 49 47 46 46 46 46 45 45 45 45 45 44 44 45 45 46 46 47 48 49 50 50 51 51 51 51 51 51 51 52 53 53 53 53 52 51 51 51 51 51 50 49 48 48 48 49 50 51 53 53 53 53 53 54 56 59 61 61
37 41 44 46 47 48 50 51 51 51 53 53 53 53 54 54 55 56 57 58 58 57 57 56 55 54 51 48 46 45 45 46 46 46 45 45 45 45 45 45 46 47 47 48 49 49 50 51 52 52 52 52 52 53 53 53 53 55 54 54 54 53 53 53 51 50 50 51 50 49 49 48 48 49 51 52 53 53 54 54 54 55 58 60 61
40 43 45 46 48 50 51 51 52 52 53 53 53 53 54 55 57 57 57 57 56 56 56 56 55 54 52 50 47 46 45 45 46 46 45 45 45 45 46 46 47 48 49 49 50 51 51 52 53 53 53 53 53 54 54 54 55 56 56 56 55 54 55 55 54 52 50 50 51 50 49 49 48 49 50 51 52 52 53 54 54 55 57 59 60
43 45 46 48 50 51 51 51 52 52 52 52 53 54 55 55 56 55 55 55 55 55 54 53 52 51 50 49 48 47 46 46 45 45 45 45 46 46 47 47 48 49 50 50 51 51 52 52 53 53 53 54 54 54 54 55 56 57 57 56 56 55 57 57 57 55 52 51 51 50 49 49 49 49 50 51 50 50 51 52 53 54 55 57 58
46 46 47 49 50 51 51 51 52 52 52 52 53 54 54 54 54 54 54 53 53 52 51 50 48 48 47 47 47 46 46 46 45 45 46 46 46 47 48 49 49 50 51 51 52 52 52 53 53 54 54 54 54 54 54 55 56 57 57 56 56 57 58 59 58 57 55 53 51 50 49 48 49 49 50 49 49 48 49 50 51 52 53 55 56
46 47 48 50 50 51 51 51 51 51 51 52 52 52 52 52 53 52 52 51 50 49 48 47 47 46 46 46 46 46 46 46 46 46 47 47 48 48 49 50 50 50 51 52 52 52 53 53 53 54 54 54 54 54 54 55 56 57 57 56 56 58 59 59 59 58 56 53 52 50 48 47 47 48 48 47 47 47 47 48 49 49 51 53 55
47 48 50 51 51 51 51 51 51 50 50 51 51 51 51 51 51 50 50 50 49 49 48 48 47 47 46 46 46 46 47 47 47 48 48 49 49 49 50 50 50 51 51 52 52 52 53 53 53 54 54 54 54 54 54 55 56 57 57 56 57 59 60 60 59 58 55 53 51 49 47 45 45 45 45 44 44 45 46 47 46 47 49 51 53
49 50 51 52 52 51 51 51 50 50 50 50 50 50 49 49 49 49 49 49 48 48 48 48 48 47 47 47 47 47 48 48 49 49 50 51 51 51 51 52 52 52 52 52 52 52 52 53 53 54 54 54 54 54 54 55 56 57 57 56 56 58 59 59 58 56 53 51 50 48 45 44 44 44 43 42 42 43 45 45 43 44 48 50 51
51 52 52 52 51 51 50 50 49 49 49 49 48 48 47 47 47 48 48 48 48 48 48 48 49 49 49 49 50 50 50 51 51 52 52 53 53 53 53 53 53 53 53 52 52 52 52 53 54 54 55 55 54 54 54 55 56 56 55 54 55 56 57 57 56 54 51 49 48 46 44 43 43 42 40 39 40 42 43 41 41 42 45 48 49
52 52 53 52 50 50 49 49 48 48 47 47 46 46 46 47 48 48 48 49 49 49 50 50 51 51 52 52 52 53 53 54 54 54 54 55 55 55 55 55 55 55 54 54 54 53 53 53 54 55 55 56 55 55 55 55 55 55 54 53 53 55 55 55 54 51 49 47 46 44 43 42 41 40 37 37 39 40 40 38 39 41 44 46 46
52 52 52 51 49 48 47 46 46 46 46 46 46 47 47 48 49 49 50 51 51 51 52 52 53 53 54 54 55 55 56 56 56 56 57 57 57 57 57 57 56 56 56 55 55 55 54 54 54 55 56 56 56 56 55 55 55 55 55 53 51 52 53 53 52 49 47 45 44 43 42 41 39 37 36 36 37 38 37 37 38 39 41 44 44
51 50 49 48 46 45 44 44 44 44 45 46 47 48 48 49 50 51 52 52 53 53 53 54 55 55 56 56 57 57 57 58 58 58 58 58 58 58 58 57 57 57 57 56 56 55 54 55 55 55 56 56 56 56 56 55 55 54 54 52 50 51 52 51 49 46 44 43 42 41 41 39 37 35 35 35 35 36 36 37 38 38 39 41 42
48 47 46 45 43 42 42 42 43 44 45 46 47 48 49 51 52 53 53 54 54 54 55 55 56 56 57 57 58 58 58 58 58 59 59 59 58 58 58 58 58 58 57 57 56 55 55 54 54 55 55 55 56 56 55 55 54 53 52 49 48 50 50 48 46 43 41 41 40 40 39 37 34 34 35 35 35 35 36 37 37 37 37 38 40
45 44 43 42 41 41 41 42 44 45 47 48 49 50 51 52 53 54 55 55 55 56 56 56 57 57 58 58 58 58 58 58 58 59 59 59 58 58 58 58 57 57 57 56 56 55 55 54 54 54 54 54 54 54 54 54 53 51 49 46 46 47 46 44 42 39 38 38 38 38 36 34 34 34 35 35 35 36 37 36 36 36 36 37 38
43 42 41 40 40 41 42 44 45 47 48 50 51 52 53 54 55 55 56 56 56 57 57 57 58 58 58 59 59 59 59 58 58 58 58 58 58 57 57 57 56 56 56 55 55 54 54 54 54 53 53 53 53 52 52 51 49 47 45 44 43 43 42 40 38 36 36 36 36 35 33 33 34 35 35 35 36 36 36 36 34 35 36 36 37
42 41 41 41 41 43 44 46 47 49 50 52 53 53 54 55 56 56 57 57 57 57 58 58 58 58 59 59 59 59 59 58 58 58 58 57 56 56 55 55 54 54 54 54 54 53 53 52 52 52 52 51 51 51 50 47 44 42 40 40 41 40 38 36 34 33 34 33 33 32 32 32 34 34 35 36 36 35 34 34 33 34 35 36 36
42 41 41 42 43 44 46 48 49 51 52 53 54 55 55 56 57 57 58 58 58 58 58 58 58 59 59 59 59 59 58 58 58 58 57 57 56 55 54 53 53 53 52 52 52 52 52 51 50 50 49 49 49 48 46 42 39 37 35 35 38 38 35 32 31 31 31 29 29 30 31 33 33 33 34 35 35 34 33 32 33 33 34 35 36
41 42 42 43 45 46 48 49 51 52 53 54 55 56 56 57 57 58 58 58 58 58 59 59 59 59 60 59 59 59 58 57 57 57 57 56 55 54 54 53 52 52 51 51 51 51 50 49 48 48 47 47 46 44 41 37 35 33 31 31 34 36 34 30 28 29 29 27 28 30 32 31 31 32 33 33 33 32 31 31 33 34 34 35 36
41 42 43 44 46 47 49 50 51 53 54 55 55 56 56 57 57 58 58 59 59 59 59 59 59 59 60 59 59 58 58 57 56 56 56 55 54 54 53 52 52 51 51 50 50 49 48 47 46 46 45 44 43 40 36 33 31 29 27 27 30 33 32 30 28 28 28 28 28 30 31 30 30 31 31 32 31 30 30 31 33 34 34 34 35
42 43 45 46 47 49 50 51 52 54 55 56 56 56 56 57 57 58 59 59 60 60 59 59 60 59 59 59 58 58 57 56 55 55 54 54 53 53 52 52 51 51 50 49 49 48 47 46 44 44 43 41 39 35 32 30 28 27 25 25 28 32 32 30 28 28 29 29 29 29 29 29 29 29 29 30 30 30 30 31 32 33 32 33 33
43 44 46 47 48 50 51 52 53 54 55 56 56 57 57 57 58 59 60 60 60 60 60 60 60 59 59 58 57 57 56 55 54 53 53 53 52 52 51 51 50 49 49 48 47 46 45 44 42 41 40 38 34 30 29 28 27 26 25 26 29 32 33 31 29 28 29 30 28 27 27 28 28 27 27 29 30 30 31 31 31 31 31 32 32
43 44 46 47 48 49 50 52 53 54 55 56 56 57 57 58 59 60 60 60 60 60 60 60 59 59 58 57 56 55 54 53 52 52 52 51 51 51 50 50 49 49 48 47 46 45 43 41 40 38 36 34 31 28 27 27 26 25 26 28 31 33 33 32 30 28 29 28 26 25 25 26 27 26 27 28 29 30 30 30 29 29 30 31 30
43 44 45 46 48 49 50 52 53 54 55 56 57 57 58 59 59 60 60 60 60 60 59 59 58 58 56 55 54 53 52 51 51 50 50 50 50 50 49 49 49 48 47 46 45 43 42 39 37 34 32 31 30 26 26 26 26 26 27 29 33 34 34 33 31 28 27 26 24 23 24 25 25 25 26 28 28 28 29 28 28 29 30 29 28
43 44 46 47 48 49 51 52 53 54 55 56 57 58 59 59 60 60 60 60 59 59 58 57 57 55 54 53 52 51 50 50 49 49 49 49 48 48 48 47 47 47 46 45 44 42 41 37 33 31 29 29 28 26 25 26 26 26 28 31 33 35 34 33 30 26 23 22 21 21 21 23 24 25 26 27 27 27 28 27 27 28 28 26 26
44 45 47 48 49 49 50 51 53 55 56 57 58 58 59 60 60 60 60 59 58 57 56 55 54 53 52 51 50 50 49 48 48 48 47 47 47 47 47 46 46 45 45 43 41 40 38 34 30 28 26 26 26 25 24 24 25 26 28 31 33 35 35 32 27 22 20 20 20 20 20 22 23 24 25 26 25 26 26 26 25 25 24 24 26
44 46 47 48 49 50 50 51 53 54 56 57 58 59 59 59 59 59 59 58 56 55 54 53 52 51 50 50 49 48 48 47 47 47 46 46 46 46 45 45 45 45 43 40 38 36 34 31 28 26 24 23 23 23 22 22 24 25 27 30 32 33 31 27 22 19 19 20 20 19 20 21 22 23 25 25 25 25 25 25 23 22 23 25 29
45 46 47 49 49 50 51 52 53 54 56 57 58 59 58 58 58 57 57 56 54 53 52 52 51 50 50 49 48 47 46 45 45 46 45 45 45 44 43 43 43 42 40 37 34 32 30 27 25 23 22 20 19 19 18 18 20 22 24 26 27 26 24 22 19 19 19 19 19 19 20 21 22 23 25 25 24 25 25 23 21 22 23 26 28
45 47 48 49 50 51 52 53 54 55 56 57 58 58 57 56 56 55 55 54 53 52 51 51 50 50 49 48 46 45 44 44 44 45 44 43 43 43 41 40 40 39 36 32 28 26 25 23 20 18 17 16 15 14 13 12 14 16 17 19 20 19 19 20 19 19 18 18 18 19 20 21 22 23 24 23 24 26 25 23 22 23 24 24 26
46 47 48 49 51 52 52 53 54 55 56 56 57 56 55 54 54 54 53 52 51 50 51 50 50 49 48 46 45 44 43 43 43 43 42 42 42 42 39 37 35 34 31 27 23 22 21 19 16 14 14 14 12 9 9 9 9 11 13 14 16 17 18 19 18 17 16 17 18 18 19 19 20 21 22 22 24 25 25 25 26 25 23 23 25
46 47 48 50 51 52 52 53 53 54 54 55 54 54 53 53 52 52 52 52 51 50 50 50 49 48 47 45 44 43 42 42 41 41 40 40 41 40 37 34 31 28 25 22 19 19 18 18 18 16 14 13 11 9 8 7 8 9 11 13 14 16 17 17 16 15 15 17 17 17 17 17 18 19 21 22 23 24 24 26 29 28 24 22 23
46 47 49 50 51 52 53 53 53 53 53 53 52 52 52 52 51 51 51 51 50 50 49 49 48 47 46 45 44 43 42 41 40 38 38 38 39 39 36 31 27 24 21 18 16 17 20 22 22 19 16 14 12 9 8 7 7 8 10 11 13 14 14 15 14 14 15 16 16 16 16 16 17 19 20 21 22 23 24 25 28 29 26 23 23
47 48 50 51 52 53 53 53 52 52 51 51 51 51 51 50 50 50 50 50 50 49 49 48 47 46 45 45 44 43 43 41 39 37 36 35 35 36 34 29 24 21 19 16 15 20 25 26 23 19 16 13 11 10 9 8 6 7 8 10 12 13 13 13 13 14 15 15 15 16 17 17 17 19 20 21 21 23 25 25 26 27 27 25 24
48 49 50 51 52 52 52 52 51 50 50 50 50 50 49 49 49 49 50 50 49 48 48 47 46 45 45 44 44 44 43 41 39 37 35 34 34 34 31 27 23 21 20 17 18 22 25 24 21 19 16 13 12 12 10 9 8 6 5 7 9 10 11 12 12 13 14 15 17 18 19 19 19 20 20 21 22 24 26 26 26 27 27 26 25
48 49 50 51 51 51 51 50 50 49 49 49 49 49 49 49 49 49 49 49 48 47 47 46 45 45 44 44 43 43 43 42 40 37 33 31 31 33 31 27 22 18 17 15 15 18 20 19 17 16 16 15 14 12 11 13 14 10 5 3 4 5 7 9 10 11 13 17 19 20 20 21 21 19 18 20 22 24 26 26 27 28 27 26 26
48 48 49 49 50 50 49 49 48 48 48 48 49 49 48 48 48 48 48 48 48 47 46 45 44 44 43 43 43 43 42 41 40 38 34 29 25 25 26 26 23 16 12 10 8 8 11 13 13 13 14 15 14 13 13 16 16 11 6 5 4 1 4 8 11 13 16 19 21 22 22 22 21 20 19 20 23 25 26 27 28 29 28 28 28
47 48 49 48 48 48 48 47 47 47 47 48 48 49 48 48 47 47 47 47 46 46 45 44 43 43 43 43 43 42 42 40 38 37 36 32 25 19 16 18 21 17 11 9 6 4 3 6 9 11 12 12 13 14 14 15 14 9 5 7 8 6 6 8 11 13 18 20 20 20 21 20 20 21 21 22 24 26 27 28 28 29 30 30 30
Wind_Direction
237 237 238 238 239 242 246 251 257 262 266 270 274 281 285 287 291 296 299 300 302 302 302 303 304 305 306 307 308 309 312 313 313 311 308 305 303 301 299 297 296 295 294 293 292 291 290 289 288 287 287 286 286 285 285 284 283 283 282 282 283 282 282 283 283 284 283 282 282 280 279 279 279 278 277 276 276 276 276 275 275 274 272 271 270
234 236 237 238 240 245 249 255 260 266 273 279 284 287 290 294 298 301 302 302 303 303 303 303 304 306 307 308 309 311 313 313 312 310 306 304 302 300 298 296 295 294 293 292 291 290 290 289 288 287 287 286 286 285 285 285 284 284 283 283 283 282 283 283 283 283 283 283 283 281 280 279 279 278 278 277 276 275 275 275 274 274 273 271 270
234 236 237 240 244 250 256 263 270 277 286 292 295 298 300 303 305 305 305 305 305 305 306 306 307 308 309 310 312 313 314 313 311 308 305 303 301 299 297 296 294 293 292 291 290 290 289 289 288 287 286 285 285 284 284 284 284 283 283 283 282 282 283 283 283 282 283 283 284 283 282 281 278 277 277 277 276 274 274 273 273 273 273 272 271
235 236 238 243 250 259 268 276 285 293 299 303 305 307 308 308 309 309 310 310 310 310 310 311 311 311 311 312 313 313 313 311 309 306 303 301 299 297 296 295 293 292 291 291 290 290 289 288 287 286 285 285 284 284 284 283 283 283 283 283 282 282 282 282 282 282 283 284 284 284 284 283 281 279 277 275 274 274 273 272 272 272 272 272 271
235 237 240 248 259 270 281 291 299 305 309 311 312 312 312 313 314 315 315 314 314 314 313 313 312 312 312 312 312 311 310 308 306 302 299 297 296 294 293 293 292 291 291 290 290 290 289 289 287 286 285 285 284 284 284 283 283 283 283 282 283 283 283 282 282 282 282 282 282 283 284 284 283 282 280 276 274 274 273 272 271 270 270 270 270
234 238 244 255 269 282 293 301 307 312 315 316 317 317 318 318 319 318 317 316 315 314 313 312 312 311 311 310 309 308 307 306 304 300 296 294 293 292 291 290 290 290 289 289 290 290 289 289 288 286 285 285 284 284 283 284 284 283 283 283 283 284 283 283 283 283 282 281 281 282 282 283 283 283 281 279 276 273 273 272 271 270 269 269 269
236 242 252 265 279 291 301 307 312 316 318 320 320 321 321 320 319 317 315 315 314 313 312 311 311 310 309 308 308 307 306 305 303 299 295 292 290 289 289 289 288 288 289 289 289 289 289 289 288 287 286 285 285 284 284 284 283 283 283 282 282 283 283 283 283 283 282 281 281 281 280 280 281 281 281 280 278 275 272 272 272 271 270 268 268
241 252 265 278 290 300 308 313 317 320 321 323 322 322 321 319 318 315 314 314 313 312 312 311 310 308 308 307 307 306 305 304 303 300 296 292 289 287 286 286 286 286 287 288 288 288 287 287 287 286 286 286 286 286 285 285 284 283 282 282 282 282 282 282 283 283 282 282 281 280 279 279 279 279 279 280 279 277 274 271 270 271 271 269 268
250 265 279 292 302 309 315 319 322 323 323 323 322 322 321 319 316 315 314 313 313 312 311 310 309 309 309 308 307 307 306 304 302 300 297 293 290 288 286 285 284 283 284 286 286 286 285 284 284 284 285 286 286 286 286 285 284 283 283 283 283 282 283 283 283 283 282 282 281 280 279 278 277 277 277 277 277 278 276 272 269 267 267 268 267
267 281 295 306 312 317 321 323 324 323 323 322 322 321 319 317 315 314 313 313 312 311 309 309 309 310 310 309 308 307 305 303 301 299 297 295 292 290 288 287 285 284 284 284 285 285 285 284 283 283 283 284 285 285 285 284 283 283 283 283 284 284 284 284 284 284 283 281 281 279 278 277 276 276 275 275 275 275 275 274 271 267 264 264 264
287 299 309 314 318 321 323 323 322 322 321 321 320 319 317 315 314 314 314 313 312 310 308 307 309 310 309 308 307 306 304 302 300 298 296 295 293 292 290 289 288 287 286 285 285 286 286 285 285 284 284 284 284 285 285 285 284 283 283 283 284 284 283 283 283 284 283 281 280 278 278 277 275 275 274 273 272 272 273 273 271 269 266 262 260
300 307 313 317 319 319 319 320 320 321 320 319 319 317 316 315 315 315 314 313 311 309 308 307 308 309 309 308 307 305 303 300 298 296 294 293 292 291 290 290 289 288 288 287 287 288 287 287 287 287 287 287 286 286 286 286 286 285 285 284 284 284 283 283 283 283 282 281 280 278 276 275 274 273 273 271 270 270 270 270 270 269 267 264 261
306 311 314 317 317 317 318 319 320 320 319 319 318 317 317 316 315 315 314 314 313 312 312 311 311 312 313 312 309 306 303 300 297 295 294 293 292 291 291 291 290 290 289 289 289 289 288 288 288 288 288 288 288 288 287 286 286 286 285 285 284 284 283 282 283 283 282 281 279 277 275 274 272 271 271 270 269 269 268 269 269 268 266 264 261
311 314 316 317 318 319 319 320 320 320 320 320 319 318 317 316 316 316 316 317 317 317 316 316 316 316 316 315 311 307 303 300 298 297 295 294 294 293 293 292 292 292 291 292 292 291 291 290 289 289 289 288 288 288 287 286 285 284 284 284 283 283 282 281 282 281 281 280 278 276 275 273 272 270 268 267 267 267 267 267 267 266 265 263 260
316 318 320 320 321 321 321 321 322 322 322 321 319 317 316 316 316 317 317 317 317 317 317 317 317 317 316 314 311 307 302 299 298 297 296 295 294 293 293 293 293 293 292 293 293 293 293 292 292 291 290 289 288 287 287 286 285 284 283 283 283 282 281 280 281 280 280 280 279 277 275 274 273 270 267 266 265 265 265 265 264 264 264 262 259
322 323 323 323 323 324 323 323 323 322 321 318 315 314 314 315 316 317 318 319 319 319 319 319 319 318 317 315 311 306 302 299 297 296 294 294 293 293 293 293 293 293 293 294 294 294 293 293 292 292 291 290 289 288 288 287 285 284 284 283 283 282 281 280 280 279 280 280 279 277 275 275 274 272 268 265 264 263 263 262 261 261 261 260 258
326 325 325 326 326 325 324 322 321 319 316 314 314 315 316 317 319 320 321 321 321 320 320 320 320 319 318 315 311 306 303 300 298 296 294 293 293 293 293 293 293 293 294 294 294 293 293 292 291 291 290 290 289 289 288 287 287 286 286 285 284 283 282 281 280 279 279 279 278 276 274 274 275 274 271 267 264 261 260 259 258 258 258 258 257
327 327 327 326 325 323 321 319 318 315 314 315 316 318 319 321 321 321 320 320 319 319 319 319 318 317 316 314 311 307 303 301 299 297 295 294 293 293 293 293 294 295 295 295 294 293 292 291 290 290 289 289 289 288 288 288 287 287 287 286 286 285 284 282 282 281 280 279 278 276 273 272 274 274 273 269 265 261 259 257 256 255 255 255 255
326 326 325 323 320 319 317 316 315 315 316 318 319 320 320 320 320 319 318 318 318 318 317 317 317 315 314 312 309 306 303 301 299 298 297 295 295 295 296 296 296 296 295 294 293 292 291 290 290 289 289 288 288 288 288 288 287 287 287 287 286 286 285 284 284 284 283 281 279 276 273 272 272 274 273 270 265 261 257 255 253 252 253 253 252
323 322 319 317 316 315 315 315 316 318 320 320 320 319 318 318 318 317 317 317 317 317 317 317 315 314 312 310 308 306 304 302 301 300 299 299 299 299 298 298 298 297 296 295 294 293 292 291 290 289 289 288 288 288 288 287 287 286 286 286 286 285 283 283 283 284 284 283 280 277 274 272 272 273 272 269 265 260 255 252 250 250 251 250 249
318 316 314 314 315 316 317 318 320 321 320 319 317 317 317 317 318 317 317 318 318 318 318 317 315 314 312 310 308 307 305 304 303 302 302 301 301 300 299 298 298 297 296 295 294 293 292 291 290 289 288 288 288 288 288 287 286 286 286 286 285 283 282 283 283 283 283 282 280 278 275 274 273 272 271 267 264 258 252 249 248 249 249 248 246
313 313 314 316 317 318 320 321 321 320 318 317 317 318 319 319 319 319 319 319 319 319 318 317 316 315 313 311 309 307 306 305 304 303 303 302 301 300 299 298 297 296 295 294 293 292 291 290 289 289 289 288 288 288 287 287 286 285 285 284 283 282 281 282 281 282 282 280 278 277 276 275 273 271 269 265 260 254 249 246 247 248 247 245 244
313 315 316 318 319 321 322 322 320 319 318 318 319 320 320 320 320 319 319 319 319 319 318 317 315 314 313 311 309 308 307 306 305 304 303 302 301 301 300 299 298 296 295 294 293 292 291 291 290 290 289 288 288 287 287 286 285 285 284 283 282 280 280 280 280 281 280 277 275 275 275 275 273 270 267 261 254 248 245 245 246 246 246 244 243
316 317 319 321 322 322 322 320 319 319 319 319 319 319 320 320 320 319 319 319 318 318 317 316 315 314 314 313 311 310 309 308 307 306 305 304 303 302 301 299 298 297 296 295 294 293 292 292 291 290 289 289 288 287 286 286 285 284 284 282 280 279 278 278 279 279 277 273 272 273 273 273 271 268 261 251 246 244 244 245 246 245 245 244 242
319 320 321 322 322 321 320 319 319 318 318 318 319 320 321 321 321 320 320 320 319 319 318 317 316 315 314 313 312 311 310 309 308 307 306 305 304 303 302 301 300 299 298 297 296 295 294 293 291 290 290 289 289 288 286 285 285 284 283 281 279 277 277 276 277 276 274 270 270 271 271 271 268 261 251 242 241 243 245 246 246 244 244 244 242
319 320 321 320 319 319 318 318 318 318 319 320 322 323 323 322 322 321 321 321 320 320 319 317 317 315 314 313 312 311 311 310 309 308 307 306 305 304 303 302 301 300 299 298 298 297 295 294 293 291 291 290 289 288 287 286 285 284 283 282 278 276 275 275 275 273 270 268 268 269 269 268 261 251 241 238 240 244 246 247 247 244 243 243 242
318 318 317 316 316 317 317 317 318 319 321 322 323 323 323 323 322 322 322 321 320 320 319 318 317 316 315 314 313 312 311 310 310 309 308 307 305 304 303 302 302 301 300 299 298 297 296 295 293 292 291 291 289 289 287 286 285 284 283 282 278 275 273 273 273 271 267 265 265 266 266 262 252 241 236 237 241 244 247 248 248 245 243 242 242
317 316 315 315 316 317 317 319 321 322 323 323 323 324 324 323 323 322 322 321 321 320 319 318 317 316 315 314 313 312 311 311 310 309 308 307 306 305 304 303 302 301 300 299 298 297 296 294 293 292 292 291 289 289 288 287 285 284 282 280 277 274 273 271 270 267 264 262 263 264 262 253 240 233 234 238 242 245 247 247 246 245 243 241 241
317 315 315 317 318 319 321 322 323 324 324 324 325 325 325 324 323 323 322 322 321 320 319 319 318 317 316 315 314 313 312 311 310 309 308 307 306 305 304 303 302 301 300 300 299 298 297 296 294 293 292 291 289 288 287 286 285 284 282 279 275 273 272 269 266 263 260 260 262 261 255 242 231 230 234 238 242 246 247 245 244 243 243 241 240
317 316 317 319 320 323 324 325 325 326 326 326 326 326 325 324 324 323 323 322 321 321 320 319 318 317 316 315 314 313 312 311 310 309 308 307 306 305 304 303 302 302 301 301 300 299 298 297 296 294 293 291 290 288 286 285 284 283 281 277 273 270 267 265 261 259 259 260 260 255 244 232 228 230 235 239 244 246 246 244 242 242 242 242 241
316 317 320 322 324 327 327 327 327 327 327 326 326 326 325 324 324 323 323 322 322 321 320 319 319 318 316 315 314 313 312 312 311 309 308 307 306 305 305 304 303 303 302 301 300 299 299 298 296 295 293 292 290 288 286 285 283 280 278 275 271 267 263 260 259 258 259 258 253 244 233 226 228 232 237 242 245 245 243 243 241 241 241 241 241
317 320 323 325 327 329 328 328 328 327 327 326 325 325 325 325 324 324 323 323 322 321 320 319 318 317 316 315 314 313 312 312 311 310 309 308 308 307 306 305 305 304 303 302 301 301 300 299 298 296 294 292 290 288 286 284 281 277 273 269 266 264 260 257 257 257 255 250 242 233 227 226 230 236 242 246 246 243 241 242 241 240 240 240 240
320 323 325 327 329 329 329 328 327 327 326 326 325 325 325 325 324 324 323 322 321 320 319 319 318 317 316 315 314 313 313 312 311 310 310 309 309 309 308 308 306 306 305 303 303 302 301 301 299 297 294 292 289 287 285 281 276 272 268 263 261 260 258 255 255 253 246 238 230 227 227 230 235 242 248 249 247 243 241 241 241 240 239 238 237
322 325 327 329 330 329 328 327 327 326 325 325 325 325 325 324 324 322 321 320 320 319 319 318 318 317 316 315 314 314 313 313 312 311 311 311 311 310 310 309 308 307 306 305 304 304 303 302 300 297 295 292 289 286 282 276 271 267 262 258 256 255 255 253 251 246 238 229 225 226 229 233 240 247 251 250 247 244 242 241 241 240 239 238 237
325 328 329 330 329 328 327 327 326 326 325 324 324 324 324 324 323 322 321 320 320 320 319 319 318 317 317 316 315 314 314 314 313 313 312 312 312 312 311 310 309 309 308 307 307 307 305 304 302 299 295 292 288 284 278 271 266 260 255 250 246 246 249 251 247 239 232 227 224 226 230 237 245 250 250 248 246 245 243 242 241 240 239 238 236
328 329 329 329 328 327 327 326 325 324 324 324 324 324 324 323 323 322 321 321 321 321 321 320 319 318 318 317 317 316 316 316 316 315 314 314 314 313 312 312 311 311 311 311 310 310 308 305 303 300 296 291 286 280 274 268 261 254 249 243 239 238 242 247 244 235 228 227 225 227 234 244 250 250 247 245 246 246 244 241 240 239 237 235 233
327 327 327 327 326 326 325 325 324 324 324 323 324 324 323 323 323 322 322 322 322 322 322 321 320 319 319 319 319 319 319 319 319 317 317 316 316 315 315 315 315 314 314 314 312 311 309 307 305 301 295 289 284 276 270 264 257 250 245 240 236 236 238 243 242 233 227 226 226 230 240 246 248 245 243 244 245 245 244 241 237 236 234 232 229
325 325 325 325 325 325 325 324 324 324 324 324 324 324 324 324 323 323 323 323 323 323 322 322 321 321 321 321 321 322 322 321 321 320 319 318 318 317 317 318 318 318 317 316 315 313 312 310 307 302 295 288 282 275 268 262 254 247 242 238 235 235 236 239 239 232 226 227 230 235 242 243 242 240 240 242 243 244 243 239 235 232 231 229 226
324 325 325 325 326 326 326 325 325 325 324 324 325 325 325 325 324 324 324 323 324 323 323 323 323 322 323 323 324 324 324 323 322 321 321 320 319 319 320 321 321 321 320 320 319 316 314 313 308 301 293 286 282 276 269 263 256 246 240 238 236 236 236 236 235 230 227 232 238 242 242 239 236 235 238 241 241 241 241 236 232 230 228 224 221
325 325 325 326 326 326 326 326 325 325 325 325 325 325 325 325 325 325 325 324 325 325 325 324 324 325 325 327 327 327 326 325 324 323 322 322 321 321 322 323 323 323 323 323 322 318 315 314 309 300 292 287 283 278 271 265 258 248 240 238 237 237 238 236 232 228 232 241 246 245 239 235 233 232 235 238 239 238 237 234 229 226 223 218 214
326 326 326 326 326 326 326 326 326 325 325 325 325 326 326 326 326 325 325 326 326 326 326 326 327 327 328 329 329 328 327 326 325 324 324 324 323 323 325 326 326 326 326 326 323 320 317 314 310 302 296 291 286 281 275 267 261 252 244 240 239 240 240 238 233 232 240 248 248 243 235 232 231 230 232 234 234 233 233 230 224 220 217 213 207
327 327 326 326 326 327 327 327 327 326 326 326 326 327 327 327 327 326 327 327 328 328 328 328 329 330 330 330 330 329 328 328 327 326 326 325 325 326 328 329 328 328 329 328 324 320 318 317 313 307 302 298 292 287 281 272 265 258 250 246 244 242 241 239 238 241 246 248 245 239 232 228 228 229 230 230 229 228 226 222 217 213 211 209 204
327 327 327 327 327 328 328 328 328 327 328 328 327 328 328 328 327 327 328 329 329 330 331 331 331 331 331 331 331 330 330 330 329 328 328 327 327 328 330 331 331 330 330 328 325 324 324 323 320 317 313 309 303 297 289 279 268 261 253 248 244 241 240 242 245 249 250 248 242 236 232 229 227 228 229 228 225 224 220 212 206 205 204 203 202
327 327 328 328 328 328 329 329 329 329 329 329 328 329 329 329 329 329 330 330 331 332 332 332 332 332 332 332 332 332 333 333 331 330 330 329 328 329 332 334 335 333 331 330 331 333 334 333 333 333 330 323 317 308 296 283 272 262 255 249 245 244 245 248 250 251 249 244 239 236 233 231 228 226 226 225 222 221 217 205 197 195 195 197 201
328 328 329 329 329 329 330 330 330 330 330 329 329 329 330 330 331 331 331 332 333 334 334 334 333 333 334 334 334 334 335 335 334 333 332 332 330 330 334 338 338 334 334 337 340 343 347 350 349 346 344 338 328 319 307 293 279 269 261 255 252 251 250 251 251 248 243 239 236 232 230 229 226 223 222 220 216 215 213 204 195 189 187 192 198
329 329 330 330 330 330 331 331 331 331 330 330 330 331 332 333 333 333 333 334 335 335 335 335 335 335 335 335 335 336 337 336 337 336 335 335 332 331 335 340 339 336 339 345 351 356 2 2 357 351 350 345 337 331 327 315 298 282 270 261 257 253 250 249 246 241 237 236 232 225 219 218 217 215 215 214 210 207 206 202 196 189 186 188 194
330 331 331 331 331 331 332 332 332 332 332 332 332 333 334 334 334 334 335 336 336 336 336 336 336 336 336 337 337 337 337 338 339 340 338 337 335 333 335 339 340 339 340 347 2 10 7 3 0 359 355 353 355 357 351 342 324 297 276 264 258 251 247 245 240 235 234 230 219 209 203 203 204 205 205 205 204 201 199 196 193 190 187 187 191
332 332 332 331 331 332 333 333 333 333 333 333 333 335 335 335 335 336 336 336 336 336 336 336 337 337 337 338 339 339 338 339 341 343 341 340 338 335 334 340 344 343 343 352 9 12 5 360 3 8 9 14 21 20 15 11 360 331 287 262 254 247 241 235 227 225 225 216 203 195 191 191 193 195 196 197 197 196 196 194 191 189 188 188 192
332 332 332 332 332 333 334 334 334 334 334 334 335 336 336 337 337 337 337 336 336 336 337 337 338 338 338 339 339 339 340 341 342 343 344 346 344 340 337 340 347 347 345 354 8 9 0 357 5 16 24 30 30 25 23 16 360 344 334 303 261 241 226 212 200 201 207 202 194 188 185 184 185 184 186 189 190 191 194 194 191 189 189 192 197
332 333 332 332 333 334 335 335 335 335 335 335 336 337 338 339 338 338 337 336 335 336 337 337 339 339 339 339 340 340 341 342 342 342 344 348 352 351 343 337 340 343 338 333 343 360 2 359 1 12 25 29 23 19 23 18 4 353 4 28 31 83 174 175 170 177 191 192 188 186 185 184 182 180 181 186 188 190 194 195 194 192 193 196 202
333 334 333 333 334 335 335 336 336 336 337 337 338 338 339 339 339 338 336 336 335 336 337 338 339 340 340 340 340 340 341 343 342 343 344 345 350 1 357 336 331 333 327 313 299 284 323 355 1 8 18 26 29 30 33 28 19 14 35 51 55 74 117 146 156 174 188 190 189 188 188 188 188 187 188 190 192 194 197 198 198 198 199 201 206